Regional Weather Roundup
Issued by NWS

Home | Current Version | Previous Version | Graphics & Text | Print | Product List | Glossary On
Versions: 1 2 3 4 5 6 7 8 9 10 11 12 13 14 15 16 17 18 19 20 21 22 23 24 25 26 27 28 29 30 31 32 33 34 35 36 37 38 39 40 41 42 43 44 45 46 47 48 49 50
000
ASUS43 KMKX 010200
RWRWI

WISCONSIN REGIONAL WEATHER ROUNDUP
NATIONAL WEATHER SERVICE MILWAUKEE/SULLIVAN WI
900 PM CDT FRI SEP 30 2016

NOTE: "FAIR" INDICATES FEW OR NO CLOUDS BELOW 12,000 FEET WITH NO
SIGNIFICANT WEATHER AND/OR OBSTRUCTIONS TO VISIBILITY.

WIZ001-002-006>008-014>016-023>028-010300-
NORTHWEST WISCONSIN

CITY           SKY/WX    TMP DP  RH WIND       PRES   REMARKS
SUPERIOR ARPT  CLOUDY    53  52  96 NE8G17    30.30F
ASHLAND        FOG       52  52 100 NE12      30.30F VSB 1/2
HAYWARD        MOCLDY    53  51  93 NE6       30.27F
SIREN          CLEAR     57  51  81 NE7       30.26S
CUMBERLAND     CLEAR     55  50  82 NE9       30.24F
RICE LAKE      CLEAR     58  53  80 N9        30.24F
CHETEK         NOT AVBL
LADYSMITH      CLEAR     58  54  85 N9        30.25F
EAU CLAIRE     NOT AVBL
MENOMONIE      PTCLDY    64  49  56 CALM      30.20F HAZE
NEW RICHMOND   CLEAR     58  51  79 N6        30.22F
OSCEOLA        CLEAR     59  52  77 N5        30.26S
$$

WIZ003>005-009-010-017-018-010300-
NORTH CENTRAL WISCONSIN

CITY           SKY/WX    TMP DP  RH WIND       PRES   REMARKS
MANITOWISH WTR NOT AVBL
ARBOR VITAE    CLEAR     59  53  80 NE8       30.26F
WOODRUFF       CLEAR     59  53  80 NE8       30.26F
RHINELANDER    PTCLDY    59  49  69 E7        30.26S
EAGLE RIVER    CLEAR     54  47  79 NE6       30.26F
LAND O LAKES   CLEAR     55  51  86 NE5       30.30S
PHILLIPS       CLEAR     57  52  83 N6        30.25S
TOMAHAWK       MOCLDY    60  46  61 NE5       30.25S
MEDFORD        CLOUDY    59  51  75 NE5       30.22S
MERRILL        PTCLDY    58  51  76 NE7       30.24S
$$

WIZ029-030-035-036-043>047-010300-
CENTRAL WISCONSIN

CITY           SKY/WX    TMP DP  RH WIND       PRES   REMARKS
WAUSAU         CLOUDY    62  51  67 NE8       30.20S
MOSINEE        CLOUDY    61  54  77 NE8       30.22S
MARSHFIELD     CLOUDY    62  51  67 NE6       30.19F
STEVENS POINT  CLOUDY    59  53  78 NE8       30.20S
WAUPACA        CLOUDY    61  55  78 NE5       30.20R
WAUTOMA        LGT RAIN  58  56  93 N7        30.19S
WISC RAPIDS    CLOUDY    62  54  74 E6        30.20S
CAMP DOUGLAS   NOT AVBL
$$

WIZ011>013-019>022-031-037>040-048>050-010300-
NORTHEAST WISCONSIN

CITY           SKY/WX    TMP DP  RH WIND       PRES   REMARKS
ANTIGO         CLOUDY    58  51  77 NE9       30.24S
SHAWANO        CLOUDY    64  53  68 NE12      30.21S
OCONTO         NOT AVBL
STURGEON BAY   CLOUDY    62  56  80 NE14G20   30.20S
GREEN BAY      CLOUDY    61  60  97 NE15      30.18F
MANITOWOC      NOT AVBL
APPLETON       CLOUDY    61  57  88 NE13      30.17S
CLINTONVILLE   CLOUDY    61  50  67 NE9G16    30.20S
OSHKOSH        LGT RAIN  61  57  87 NE13      30.15F
$$

WIZ032>034-041-042-053>061-010300-
SOUTHWEST WISCONSIN

CITY           SKY/WX    TMP DP  RH WIND       PRES   REMARKS
LA CROSSE      CLOUDY    64  57  78 NE5       30.17F
SPARTA         CLOUDY    59  57  92 CALM      30.19S
VIROQUA        CLOUDY    58  56  92 NE6       30.19R
BOSCOBEL       CLOUDY    61  59  93 NE5       30.17R FOG
PRAIRIE DU CHI CLOUDY    61  56  83 NW3       30.16S
PLATTEVILLE    CLOUDY    59  59 100 N6        30.15F
$$

WIZ056-057-062-063-064-067-068-010300-
SOUTH CENTRAL WISCONSIN

CITY           SKY/WX    TMP DP  RH WIND       PRES   REMARKS
REEDSBURG      NOT AVBL
BARABOO/DELLS  CLOUDY    58  56  95 NE9       30.17S FOG
LONE ROCK      NOT AVBL
MINERAL POINT  CLOUDY    59  59 100 N5        30.15S
MADISON        DRIZZLE   59  58  96 N8        30.14F FOG
MIDDLETON      CLOUDY    60  60 100 NE6       30.16S
WATERTOWN      LGT RAIN  58  58 100 N7        30.13F
MONROE         CLOUDY    59  57  94 N8        30.13S
JANESVILLE     CLOUDY    61  61 100 NE12      30.11F
$$

WIZ051-052-058>065-066-070>072-010300-
SOUTHEAST WISCONSIN

CITY           SKY/WX    TMP DP  RH WIND       PRES   REMARKS
MILWAUKEE      LGT RAIN  61  58  90 NE12      30.11F
WAUKESHA       CLOUDY    57  55  94 NE8G16    30.13F
MILWAUKEE/TIMM NOT AVBL
RACINE         CLOUDY    62  58  86 E13       30.11F
BURLINGTON     CLOUDY    58  57  97 NE6       30.11F
KENOSHA        LGT RAIN  62  59  90 E15       30.10S
FOND DU LAC    RAIN      61  59  93 NE10      30.15F
SHEBOYGAN      RAIN      61  59  93 NE14      30.15S
WEST BEND      LGT RAIN  68  68 100 E9        30.14F
JUNEAU         DRIZZLE   58  57  96 NE3       30.16S
$$

LSZ147-162-010300-
LAKE SUPERIOR

STATION/POSITION TIME  TEMP    WIND        PRES    WAVE
                       AIR SEA DIR/SP/G            HT/PER
                 (UTC) (F)     (DEG/KT/KT) (MB)    (FT/S)
W MID LAKE BUOY  0050   55 56   60/ 12/ 12 1026.2F   3/ 4
DEVILS ISLAND    0100   50      40/  7/  8 1026.9F
SAXON HARBOR     0100   55      20/  7/  9 1026.1F
$$

LMZ867-665-643>646-010300-
LAKE MICHIGAN

STATION/POSITION TIME  TEMP    WIND        PRES    WAVE
                       AIR SEA DIR/SP/G            HT/PER
                 (UTC) (F)     (DEG/KT/KT) (MB)    (FT/S)
CHAMBERS ISLAND  0100   64      40/ 13/ 16 1023.0S
S GREEN BAY BUOY 0100   63 62   60/ 19/ 25 1021.9F
N MID LAKE BUOY  0050   64 65   80/ 19/ 25 1022.7S   5/ 5
NORTHPORT PIER   0100   64      70/ 18/ 24 1023.4S
SISTER BAY       0108   63      60/  6/ 10   N/A
KEWAUNEE LAKESHO 0100   63      40/ 16/ 21 1021.2F
SHEBOYGAN LAKESH 0100   61      60/ 14/ 18 1020.6F
PORT WASHINGTON  0100   61      60/ 12/ 18 1021.3
ATWATER BUOY     0100   59 55   50/ 12/ 16 1020.0F
MILWAUKEE LAKESH 0110   58      30/ 11/ 11   N/A
S MID LAKE BUOY  0050   63 68   80/ 21/ 25 1018.2F   5/ 6
KENOSHA   LAKESH 0100   63      70/ 17/ 20 1019.0S
$$

TC  - TEMPERATURE IN CELSIUS
VSB - VISIBILITY IN STATUTE MILES
WCI - WIND CHILL INDEX
HX  - HEAT INDEX





USA.gov is the U.S. government's official web portal to all federal, state and local government web resources and services.